TimeCST,TemperatureF,Dew PointF,Humidity,Sea Level PressureIn,VisibilityMPH,Wind Direction,Wind SpeedMPH,Gust SpeedMPH,PrecipitationIn,Events,Conditions,WindDirDegrees,DateUTC
12:15 AM,32.0,26.6,80,30.07,5.0,SE,4.6,-,N/A,,Haze,130,2013-02-07 06:15:00
12:35 AM,32.0,28.4,87,30.07,5.0,SE,5.8,-,N/A,,Haze,130,2013-02-07 06:35:00
12:55 AM,32.0,28.4,87,30.07,5.0,ESE,3.5,-,N/A,,Haze,120,2013-02-07 06:55:00
1:15 AM,32.0,28.4,87,30.07,5.0,Calm,Calm,-,N/A,,Haze,0,2013-02-07 07:15:00
1:35 AM,32.0,28.4,87,30.07,5.0,Calm,Calm,-,N/A,,Haze,0,2013-02-07 07:35:00
1:55 AM,32.0,28.4,87,30.07,5.0,East,5.8,-,N/A,,Haze,100,2013-02-07 07:55:00
2:15 AM,32.0,28.4,87,30.07,4.0,ESE,6.9,-,N/A,Snow,Light Snow,110,2013-02-07 08:15:00
2:35 AM,32.0,30.2,93,30.06,1.2,SE,8.1,-,N/A,Snow,Light Snow,130,2013-02-07 08:35:00
2:55 AM,32.0,32.0,100,30.05,1.2,SE,8.1,-,N/A,Snow,Light Snow,130,2013-02-07 08:55:00
3:15 AM,32.0,32.0,100,30.04,1.8,SE,10.4,-,N/A,Snow,Light Snow,130,2013-02-07 09:15:00
3:35 AM,32.0,32.0,100,30.03,2.5,SE,10.4,-,N/A,,Overcast,130,2013-02-07 09:35:00
3:55 AM,32.0,32.0,100,30.03,3.0,SE,11.5,-,N/A,,Overcast,130,2013-02-07 09:55:00
4:15 AM,32.0,32.0,100,30.03,3.0,SE,11.5,-,N/A,,Overcast,130,2013-02-07 10:15:00
4:35 AM,32.0,32.0,100,30.02,3.0,SE,11.5,-,N/A,,Overcast,130,2013-02-07 10:35:00
4:55 AM,32.0,32.0,100,30.02,3.0,SE,10.4,-,N/A,,Overcast,130,2013-02-07 10:55:00
5:15 AM,32.0,32.0,100,30.02,3.0,SE,10.4,-,N/A,,Overcast,130,2013-02-07 11:15:00
5:35 AM,32.0,32.0,100,30.02,4.0,SE,10.4,-,N/A,,Overcast,130,2013-02-07 11:35:00
5:55 AM,32.0,32.0,100,30.02,4.0,SE,10.4,-,N/A,,Overcast,130,2013-02-07 11:55:00
6:15 AM,32.0,32.0,100,30.02,3.0,SE,9.2,-,N/A,,Overcast,130,2013-02-07 12:15:00
6:35 AM,32.0,32.0,100,30.02,3.0,SE,8.1,-,N/A,,Overcast,130,2013-02-07 12:35:00
6:55 AM,32.0,32.0,100,30.02,3.0,SE,9.2,-,N/A,,Overcast,130,2013-02-07 12:55:00
7:15 AM,32.0,32.0,100,30.01,3.0,SE,8.1,-,N/A,,Overcast,130,2013-02-07 13:15:00
7:35 AM,32.0,32.0,100,30.01,3.0,SE,10.4,-,N/A,,Overcast,130,2013-02-07 13:35:00
7:55 AM,32.0,32.0,100,30.02,3.0,SE,8.1,-,N/A,,Overcast,130,2013-02-07 13:55:00
8:15 AM,32.0,32.0,100,30.01,2.5,SE,8.1,-,N/A,,Overcast,130,2013-02-07 14:15:00
8:35 AM,32.0,32.0,100,30.01,2.5,SE,4.6,-,N/A,,Overcast,130,2013-02-07 14:35:00
8:55 AM,32.0,32.0,100,30.02,2.5,ESE,5.8,-,N/A,,Overcast,120,2013-02-07 14:55:00
9:15 AM,32.0,32.0,100,30.02,1.8,ESE,4.6,-,N/A,Snow,Light Snow,120,2013-02-07 15:15:00
9:35 AM,32.0,32.0,100,30.01,1.5,East,4.6,-,N/A,Snow,Light Snow,100,2013-02-07 15:35:00
9:55 AM,32.0,32.0,100,30.00,1.0,East,5.8,-,0.01,Snow,Light Snow,100,2013-02-07 15:55:00
10:15 AM,32.0,32.0,100,30.01,0.8,East,3.5,-,N/A,Snow,Light Snow,100,2013-02-07 16:15:00
10:35 AM,32.0,32.0,100,30.01,0.5,Calm,Calm,-,0.01,Snow,Light Snow,0,2013-02-07 16:35:00
10:55 AM,32.0,32.0,100,30.01,0.5,Calm,Calm,-,0.02,Snow,Light Snow,0,2013-02-07 16:55:00
11:15 AM,32.0,32.0,100,30.00,0.8,NE,3.5,-,0.01,Snow,Light Snow,40,2013-02-07 17:15:00
11:35 AM,32.0,32.0,100,30.00,0.5,NNE,4.6,-,0.03,Snow,Light Snow,30,2013-02-07 17:35:00
11:55 AM,32.0,32.0,100,29.99,0.8,North,5.8,-,0.03,Snow,Light Snow,10,2013-02-07 17:55:00
12:15 PM,32.0,32.0,100,29.98,0.8,NNE,6.9,-,N/A,Snow,Light Snow,20,2013-02-07 18:15:00
12:35 PM,32.0,32.0,100,29.97,0.8,NNE,6.9,-,N/A,Snow,Light Snow,20,2013-02-07 18:35:00
12:55 PM,32.0,32.0,100,29.95,0.8,NE,5.8,-,0.01,Snow,Light Snow,40,2013-02-07 18:55:00
1:15 PM,32.0,32.0,100,29.95,0.8,NNE,5.8,-,N/A,Snow,Light Snow,30,2013-02-07 19:15:00
1:35 PM,32.0,32.0,100,29.95,0.8,NNE,5.8,-,N/A,Snow,Light Snow,30,2013-02-07 19:35:00
1:55 PM,32.0,32.0,100,29.94,0.8,NNE,5.8,-,N/A,Snow,Light Snow,30,2013-02-07 19:55:00
2:15 PM,32.0,32.0,100,29.93,0.5,NNE,6.9,-,0.01,Snow,Light Snow,20,2013-02-07 20:15:00
2:35 PM,32.0,32.0,100,29.92,0.8,North,6.9,-,0.01,Snow,Light Snow,10,2013-02-07 20:35:00
2:55 PM,32.0,32.0,100,29.92,0.5,North,8.1,-,0.02,Snow,Light Snow,360,2013-02-07 20:55:00
3:15 PM,30.2,30.2,100,29.92,0.8,North,6.9,-,N/A,Snow,Light Snow,350,2013-02-07 21:15:00
3:35 PM,30.2,30.2,100,29.91,0.8,North,9.2,-,0.01,Snow,Light Snow,350,2013-02-07 21:35:00
3:55 PM,30.2,30.2,100,29.91,0.8,North,9.2,-,0.01,Snow,Light Snow,360,2013-02-07 21:55:00
4:15 PM,30.2,30.2,100,29.91,0.5,North,9.2,-,N/A,Snow,Snow,360,2013-02-07 22:15:00
4:35 PM,30.2,30.2,100,29.91,0.2,North,11.5,-,0.01,Snow,Snow,350,2013-02-07 22:35:00
4:55 PM,30.2,30.2,100,29.92,0.5,North,13.8,-,0.01,Snow,Snow,350,2013-02-07 22:55:00
5:15 PM,28.4,28.4,100,29.92,0.5,North,12.7,-,N/A,Snow,Light Snow,350,2013-02-07 23:15:00
5:35 PM,30.2,30.2,100,29.93,0.8,North,13.8,-,N/A,Snow,Light Snow,360,2013-02-07 23:35:00
5:55 PM,30.2,30.2,100,29.94,0.8,North,12.7,-,N/A,Snow,Light Snow,360,2013-02-07 23:55:00
6:15 PM,30.2,30.2,100,29.94,0.8,North,12.7,-,N/A,Snow,Light Snow,360,2013-02-08 00:15:00
6:35 PM,30.2,30.2,100,29.95,1.0,North,10.4,-,N/A,Snow,Light Snow,360,2013-02-08 00:35:00
6:55 PM,30.2,30.2,100,29.95,1.2,North,15.0,-,N/A,Snow,Light Snow,360,2013-02-08 00:55:00
7:15 PM,26.6,26.6,100,29.96,1.2,North,16.1,21.9,N/A,Snow,Light Snow,350,2013-02-08 01:15:00
7:35 PM,24.8,24.8,100,29.97,0.5,North,18.4,24.2,N/A,Snow,Light Snow,350,2013-02-08 01:35:00
7:55 PM,23.0,23.0,100,29.98,0.5,North,19.6,24.2,N/A,Snow,Snow,360,2013-02-08 01:55:00
8:15 PM,23.0,23.0,100,29.99,0.5,North,17.3,20.7,N/A,Snow,Light Snow,360,2013-02-08 02:15:00
8:35 PM,23.0,21.2,93,30.01,0.5,North,17.3,25.3,N/A,Snow,Light Snow,360,2013-02-08 02:35:00
8:55 PM,21.2,21.2,100,30.02,0.5,North,17.3,21.9,N/A,Snow,Snow,360,2013-02-08 02:55:00
9:15 PM,21.2,21.2,100,30.02,0.8,North,16.1,26.5,N/A,Snow,Light Snow,360,2013-02-08 03:15:00
9:35 PM,21.2,19.4,93,30.03,0.8,North,19.6,27.6,N/A,Snow,Light Snow,360,2013-02-08 03:35:00
9:55 PM,21.2,21.2,100,30.04,0.5,North,17.3,25.3,N/A,Snow,Light Snow,360,2013-02-08 03:55:00
10:15 PM,21.2,19.4,93,30.04,0.8,North,21.9,31.1,N/A,Snow,Light Snow,350,2013-02-08 04:15:00
10:35 PM,21.2,19.4,93,30.05,0.8,North,19.6,26.5,N/A,Snow,Light Snow,360,2013-02-08 04:35:00
10:55 PM,21.2,19.4,93,30.05,0.8,North,18.4,27.6,N/A,Snow,Light Snow,360,2013-02-08 04:55:00
11:15 PM,21.2,19.4,93,30.05,1.2,North,18.4,27.6,N/A,Snow,Light Snow,360,2013-02-08 05:15:00
11:35 PM,21.2,19.4,93,30.06,1.5,North,17.3,25.3,N/A,Snow,Light Snow,350,2013-02-08 05:35:00
11:55 PM,21.2,19.4,93,30.06,4.0,North,18.4,24.2,N/A,Snow,Light Snow,350,2013-02-08 05:55:00